Location: Toronto
(43.6667°N, 79.4167°W)
Time: 01:36:57
(UTC-04:00)

X-37B - Pass Details

Date: 23 June 2021
Orbit: 383 x 392 km, 45.0° (Epoch: 01 July)

Event Time Altitude Azimuth Distance (km) Brightness Sun altitude
Rises 22:39:13 0° 239° (WSW) 2,248 4.5 -13.4°
Reaches altitude 10° 22:41:18 10° 234° (SW) 1,397 3.4 -13.7°
Maximum altitude 22:44:22 51° 158° (SSE) 489 0.7 -14.0°
Enters shadow 22:47:05 13° 82° (E) 1,261 2.9 -14.3°
